PAA8PZ LRTR-LROP

Flight info

Callsign PAA8PZ
Flight time 0h 40m
Altitude 25000
Route DITAX DCT LAMIT DCT TOSVI
Aircraft L101/H-SDFGHIRWXY/S

Departure

Time 2026-04-22 19:01
Airport Timișoara Traian Vuia International Airport (LRTR)

Arrival

Time 2026-04-22 19:42
Airport Bucharest Henri Coandă International Airport (LROP)
Time Latitude Longitude Altitude Speed Heading
2026-04-22 18:31 45.81014 21.32373 355 ft 0 kts 313°
2026-04-22 18:51 45.81018 21.32366 347 ft 3 kts 315°
2026-04-22 18:51 45.81036 21.32360 354 ft 2 kts 17°
2026-04-22 18:52 45.81039 21.32368 352 ft 1 kts 55°
2026-04-22 18:52 45.81053 21.32398 354 ft 6 kts 55°
2026-04-22 18:52 45.81082 21.32461 355 ft 8 kts 64°
2026-04-22 18:52 45.81080 21.32535 356 ft 8 kts 114°
2026-04-22 18:53 45.81063 21.32621 349 ft 11 kts 106°
2026-04-22 18:53 45.81034 21.32744 352 ft 15 kts 111°
2026-04-22 18:53 45.80994 21.32897 356 ft 18 kts 110°
2026-04-22 18:53 45.80948 21.33084 357 ft 21 kts 110°
2026-04-22 18:54 45.80904 21.33256 350 ft 16 kts 109°
2026-04-22 18:54 45.80873 21.33381 357 ft 12 kts 110°
2026-04-22 18:54 45.80880 21.33500 355 ft 13 kts 55°
2026-04-22 18:54 45.80897 21.33522 352 ft 0 kts 32°
2026-04-22 18:56 45.80905 21.33530 353 ft 3 kts 32°
2026-04-22 18:56 45.80936 21.33549 355 ft 6 kts 22°
2026-04-22 18:56 45.80986 21.33580 357 ft 9 kts 24°
2026-04-22 18:57 45.81009 21.33667 352 ft 12 kts 100°
2026-04-22 18:57 45.80982 21.33791 357 ft 14 kts 109°
2026-04-22 18:57 45.80943 21.33947 354 ft 19 kts 110°
2026-04-22 18:57 45.80893 21.34144 355 ft 23 kts 110°
2026-04-22 18:58 45.80833 21.34376 350 ft 27 kts 109°
2026-04-22 18:58 45.80770 21.34633 349 ft 28 kts 109°
2026-04-22 18:58 45.80706 21.34890 356 ft 26 kts 108°
2026-04-22 18:58 45.80643 21.35141 354 ft 28 kts 108°
2026-04-22 18:59 45.80579 21.35393 357 ft 24 kts 109°
2026-04-22 18:59 45.80524 21.35614 350 ft 21 kts 110°
2026-04-22 18:59 45.80497 21.35772 349 ft 14 kts 87°
2026-04-22 18:59 45.80487 21.35870 352 ft 6 kts 146°
2026-04-22 19:00 45.80475 21.35861 346 ft 1 kts 234°
2026-04-22 19:00 45.80472 21.35847 346 ft 3 kts 248°
2026-04-22 19:00 45.80475 21.35814 352 ft 5 kts 288°
2026-04-22 19:00 45.80490 21.35753 353 ft 9 kts 290°
2026-04-22 19:01 45.80575 21.35419 354 ft 79 kts 290°
2026-04-22 19:01 45.80869 21.34269 371 ft 161 kts 292°
2026-04-22 19:01 45.81248 21.32630 1178 ft 178 kts 289°
2026-04-22 19:01 45.81603 21.30954 2383 ft 168 kts 290°
2026-04-22 19:02 45.81940 21.29349 3168 ft 171 kts 291°
2026-04-22 19:02 45.82063 21.27545 3524 ft 202 kts 262°
2026-04-22 19:02 45.81361 21.25662 3651 ft 224 kts 227°
2026-04-22 19:02 45.79951 21.24500 3787 ft 253 kts 196°
2026-04-22 19:03 45.78083 21.24386 3908 ft 289 kts 168°
2026-04-22 19:03 45.76184 21.25493 4591 ft 299 kts 143°
2026-04-22 19:03 45.74733 21.27497 5933 ft 279 kts 124°
2026-04-22 19:03 45.73673 21.29685 7562 ft 259 kts 118°
2026-04-22 19:04 45.72737 21.31862 8793 ft 260 kts 116°
2026-04-22 19:04 45.71782 21.34188 9449 ft 285 kts 116°
2026-04-22 19:04 45.70752 21.36760 10016 ft 307 kts 116°
2026-04-22 19:04 45.69678 21.39473 10810 ft 321 kts 116°
2026-04-22 19:05 45.68541 21.42384 11116 ft 349 kts 116°
2026-04-22 19:05 45.67318 21.45565 11237 ft 378 kts 116°
2026-04-22 19:05 45.66055 21.48885 11783 ft 389 kts 116°
2026-04-22 19:05 45.64766 21.52287 12913 ft 383 kts 116°
2026-04-22 19:06 45.63515 21.55605 14251 ft 377 kts 116°
2026-04-22 19:06 45.62272 21.58934 14968 ft 387 kts 116°
2026-04-22 19:06 45.60983 21.62425 15284 ft 405 kts 116°
2026-04-22 19:07 45.58368 21.69584 17398 ft 400 kts 116°
2026-04-22 19:07 45.57087 21.73119 18400 ft 404 kts 116°
2026-04-22 19:07 45.55794 21.76704 18721 ft 420 kts 116°
2026-04-22 19:07 45.54443 21.80468 19233 ft 429 kts 116°
2026-04-22 19:08 45.53079 21.84261 20275 ft 423 kts 115°
2026-04-22 19:08 45.51737 21.87974 21348 ft 420 kts 115°
2026-04-22 19:08 45.50382 21.91712 21865 ft 430 kts 115°
2026-04-22 19:08 45.49123 21.95647 22210 ft 441 kts 110°
2026-04-22 19:09 45.48086 21.99746 23108 ft 438 kts 106°
2026-04-22 19:09 45.47177 22.03840 23839 ft 441 kts 105°
2026-04-22 19:09 45.46569 22.06691 24053 ft 448 kts 104°
2026-04-22 19:09 45.45383 22.12315 24874 ft 437 kts 104°
2026-04-22 19:10 45.44531 22.16307 25013 ft 414 kts 105°
2026-04-22 19:10 45.43673 22.20321 25078 ft 430 kts 105°
2026-04-22 19:10 45.42799 22.24412 25076 ft 435 kts 105°
2026-04-22 19:10 45.41914 22.28544 25102 ft 441 kts 105°
2026-04-22 19:11 45.41007 22.32776 25115 ft 457 kts 105°
2026-04-22 19:11 45.40061 22.37186 25103 ft 470 kts 105°
2026-04-22 19:11 45.39100 22.41651 25104 ft 474 kts 105°
2026-04-22 19:11 45.38126 22.46154 25115 ft 476 kts 105°
2026-04-22 19:12 45.37147 22.50667 25115 ft 477 kts 105°
2026-04-22 19:12 45.36167 22.55172 25118 ft 477 kts 105°
2026-04-22 19:12 45.35185 22.59679 25118 ft 477 kts 105°
2026-04-22 19:12 45.34214 22.64122 25118 ft 477 kts 105°
2026-04-22 19:13 45.33223 22.68634 25117 ft 477 kts 105°
2026-04-22 19:13 45.32231 22.73144 25118 ft 478 kts 105°
2026-04-22 19:13 45.31240 22.77648 25121 ft 478 kts 105°
2026-04-22 19:13 45.30245 22.82162 25116 ft 478 kts 105°
2026-04-22 19:14 45.29251 22.86657 25113 ft 478 kts 105°
2026-04-22 19:14 45.28248 22.91175 25113 ft 478 kts 106°
2026-04-22 19:14 45.27248 22.95664 25110 ft 478 kts 106°
2026-04-22 19:14 45.26243 23.00173 25115 ft 478 kts 105°
2026-04-22 19:15 45.25576 23.03156 25111 ft 479 kts 106°
2026-04-22 19:15 45.24238 23.09122 25107 ft 479 kts 105°
2026-04-22 19:15 45.23223 23.13634 25106 ft 479 kts 106°
2026-04-22 19:15 45.22207 23.18137 25102 ft 479 kts 105°
2026-04-22 19:16 45.21189 23.22630 25106 ft 479 kts 105°
2026-04-22 19:16 45.20168 23.27137 25102 ft 479 kts 105°
2026-04-22 19:16 45.19148 23.31635 25102 ft 479 kts 106°
2026-04-22 19:16 45.18125 23.36130 25102 ft 479 kts 105°
2026-04-22 19:17 45.17103 23.40612 25100 ft 479 kts 106°
2026-04-22 19:17 45.16075 23.45115 25101 ft 479 kts 105°
2026-04-22 19:17 45.15046 23.49603 25102 ft 479 kts 105°
2026-04-22 19:17 45.14017 23.54088 25100 ft 479 kts 106°
2026-04-22 19:18 45.12984 23.58582 25102 ft 479 kts 106°
2026-04-22 19:18 45.11962 23.63011 25103 ft 479 kts 106°
2026-04-22 19:18 45.10927 23.67494 25097 ft 479 kts 107°
2026-04-22 19:18 45.09883 23.72011 25091 ft 464 kts 107°
2026-04-22 19:19 45.08908 23.76194 25096 ft 428 kts 107°
2026-04-22 19:19 45.08010 23.80025 25106 ft 409 kts 107°
2026-04-22 19:19 45.07118 23.83831 25097 ft 408 kts 107°
2026-04-22 19:19 45.06223 23.87651 25095 ft 408 kts 107°
2026-04-22 19:20 45.05334 23.91446 25093 ft 408 kts 107°
2026-04-22 19:20 45.04440 23.95254 25094 ft 408 kts 107°
2026-04-22 19:20 45.03550 23.99048 25091 ft 407 kts 107°
2026-04-22 19:20 45.02654 24.02855 25095 ft 408 kts 107°
2026-04-22 19:21 45.01758 24.06660 25089 ft 408 kts 107°
2026-04-22 19:21 45.00856 24.10484 25088 ft 408 kts 107°
2026-04-22 19:21 44.99957 24.14289 24723 ft 410 kts 107°
2026-04-22 19:21 44.99055 24.18100 24213 ft 407 kts 107°
2026-04-22 19:22 44.98460 24.20609 23886 ft 404 kts 107°
2026-04-22 19:22 44.97273 24.25581 23168 ft 401 kts 108°
2026-04-22 19:22 44.96657 24.28089 22796 ft 399 kts 108°
2026-04-22 19:22 44.95730 24.31767 22244 ft 396 kts 109°
2026-04-22 19:23 44.94803 24.35374 21698 ft 394 kts 109°
2026-04-22 19:23 44.93851 24.39042 21145 ft 392 kts 109°
2026-04-22 19:23 44.92914 24.42632 20637 ft 390 kts 109°
2026-04-22 19:23 44.91977 24.46215 20112 ft 388 kts 109°
2026-04-22 19:24 44.91053 24.49744 19612 ft 386 kts 109°
2026-04-22 19:24 44.90114 24.53324 19106 ft 384 kts 109°
2026-04-22 19:24 44.89201 24.56799 18624 ft 382 kts 109°
2026-04-22 19:24 44.88282 24.60295 18097 ft 380 kts 109°
2026-04-22 19:25 44.87363 24.63781 17545 ft 377 kts 109°
2026-04-22 19:25 44.86451 24.67236 17005 ft 374 kts 109°
2026-04-22 19:25 44.85549 24.70648 16463 ft 371 kts 109°
2026-04-22 19:25 44.84649 24.74053 15938 ft 369 kts 109°
2026-04-22 19:26 44.83754 24.77432 15386 ft 367 kts 109°
2026-04-22 19:26 44.82863 24.80785 14863 ft 364 kts 109°
2026-04-22 19:26 44.81978 24.84113 14329 ft 361 kts 109°
2026-04-22 19:26 44.81100 24.87410 13808 ft 358 kts 109°
2026-04-22 19:27 44.80230 24.90674 13220 ft 355 kts 109°
2026-04-22 19:27 44.79365 24.93916 12717 ft 351 kts 109°
2026-04-22 19:27 44.78521 24.97076 12276 ft 348 kts 110°
2026-04-22 19:27 44.77672 25.00254 11787 ft 345 kts 110°
2026-04-22 19:28 44.76828 25.03406 11287 ft 342 kts 110°
2026-04-22 19:28 44.75989 25.06538 10815 ft 339 kts 110°
2026-04-22 19:28 44.75177 25.09565 10362 ft 324 kts 110°
2026-04-22 19:28 44.74400 25.12455 9980 ft 309 kts 110°
2026-04-22 19:29 44.73651 25.15233 9576 ft 297 kts 109°
2026-04-22 19:29 44.72933 25.17892 9173 ft 287 kts 109°
2026-04-22 19:29 44.72224 25.20521 8787 ft 287 kts 109°
2026-04-22 19:29 44.71518 25.23141 8414 ft 285 kts 109°
2026-04-22 19:30 44.71056 25.24854 8177 ft 283 kts 109°
2026-04-22 19:30 44.70127 25.28300 7686 ft 279 kts 109°
2026-04-22 19:30 44.69451 25.30806 7327 ft 277 kts 109°
2026-04-22 19:30 44.68769 25.33335 6972 ft 274 kts 108°
2026-04-22 19:31 44.68096 25.35829 6629 ft 272 kts 108°
2026-04-22 19:31 44.67427 25.38304 6264 ft 269 kts 108°
2026-04-22 19:31 44.66767 25.40749 5878 ft 266 kts 108°
2026-04-22 19:31 44.66114 25.43170 5530 ft 265 kts 108°
2026-04-22 19:32 44.65467 25.45576 5164 ft 263 kts 108°
2026-04-22 19:32 44.64823 25.47971 4816 ft 261 kts 108°
2026-04-22 19:32 44.64183 25.50351 4494 ft 259 kts 108°
2026-04-22 19:32 44.63550 25.52714 4193 ft 258 kts 109°
2026-04-22 19:33 44.62924 25.55050 3866 ft 257 kts 109°
2026-04-22 19:33 44.62304 25.57360 3493 ft 249 kts 109°
2026-04-22 19:33 44.61703 25.59597 3131 ft 241 kts 110°
2026-04-22 19:33 44.61109 25.61798 2818 ft 233 kts 110°
2026-04-22 19:34 44.60559 25.63824 2716 ft 218 kts 110°
2026-04-22 19:34 44.60040 25.65730 2701 ft 201 kts 110°
2026-04-22 19:34 44.59541 25.67552 2735 ft 201 kts 110°
2026-04-22 19:34 44.59039 25.69390 2739 ft 203 kts 110°
2026-04-22 19:35 44.58533 25.71241 2719 ft 202 kts 110°
2026-04-22 19:35 44.58031 25.73086 2704 ft 202 kts 110°
2026-04-22 19:36 44.57638 25.74534 2721 ft 202 kts 110°
2026-04-22 19:36 44.57301 25.75781 2756 ft 203 kts 110°
2026-04-22 19:36 44.56813 25.77599 2781 ft 195 kts 110°
2026-04-22 19:36 44.56379 25.79363 2708 ft 188 kts 103°
2026-04-22 19:37 44.56311 25.81171 2685 ft 185 kts 85°
2026-04-22 19:37 44.56432 25.82973 2719 ft 184 kts 85°
2026-04-22 19:37 44.56537 25.84704 2768 ft 175 kts 85°
2026-04-22 19:37 44.56632 25.86397 2693 ft 173 kts 86°
2026-04-22 19:38 44.56637 25.88085 2689 ft 173 kts 91°
2026-04-22 19:38 44.56545 25.89688 2736 ft 158 kts 100°
2026-04-22 19:38 44.56377 25.91211 2713 ft 153 kts 91°
2026-04-22 19:38 44.56438 25.92655 2570 ft 146 kts 83°
2026-04-22 19:39 44.56547 25.94055 2418 ft 150 kts 83°
2026-04-22 19:39 44.56664 25.95561 2247 ft 159 kts 83°
2026-04-22 19:39 44.56782 25.97101 1968 ft 158 kts 84°
2026-04-22 19:39 44.56860 25.98116 1829 ft 158 kts 84°
2026-04-22 19:40 44.57019 26.00158 1550 ft 157 kts 84°
2026-04-22 19:40 44.57136 26.01683 1327 ft 157 kts 84°
2026-04-22 19:40 44.57248 26.03209 1081 ft 157 kts 84°
2026-04-22 19:40 44.57362 26.04729 817 ft 156 kts 83°
2026-04-22 19:41 44.57489 26.06233 631 ft 152 kts 82°
2026-04-22 19:41 44.57606 26.07659 437 ft 144 kts 83°
2026-04-22 19:41 44.57702 26.08963 322 ft 119 kts 83°
2026-04-22 19:41 44.57773 26.09878 325 ft 73 kts 84°
2026-04-22 19:42 44.57820 26.10495 324 ft 49 kts 85°
2026-04-22 19:42 44.57835 26.10778 320 ft 24 kts 94°
2026-04-22 19:42 44.57808 26.10978 315 ft 11 kts 111°
2026-04-22 19:42 44.57773 26.11098 316 ft 13 kts 112°
2026-04-22 19:43 44.57696 26.11113 317 ft 7 kts 252°
2026-04-22 19:43 44.57686 26.11038 316 ft 9 kts 265°
2026-04-22 19:43 44.57680 26.10931 319 ft 13 kts 265°
2026-04-22 19:44 44.57668 26.10784 316 ft 17 kts 264°
2026-04-22 19:44 44.57656 26.10614 323 ft 17 kts 264°
2026-04-22 19:44 44.57644 26.10443 325 ft 19 kts 264°
2026-04-22 19:44 44.57627 26.10234 323 ft 23 kts 264°
2026-04-22 19:45 44.57613 26.10049 325 ft 16 kts 264°
2026-04-22 19:45 44.57600 26.09869 323 ft 22 kts 264°
2026-04-22 19:45 44.57582 26.09641 320 ft 22 kts 263°
2026-04-22 19:45 44.57564 26.09408 320 ft 26 kts 264°
2026-04-22 19:46 44.57549 26.09218 320 ft 19 kts 264°
2026-04-22 19:46 44.57534 26.09016 324 ft 22 kts 263°
2026-04-22 19:46 44.57519 26.08805 327 ft 19 kts 264°
2026-04-22 19:46 44.57508 26.08660 324 ft 15 kts 263°
2026-04-22 19:47 44.57499 26.08545 325 ft 8 kts 263°
2026-04-22 19:47 44.57464 26.08479 323 ft 11 kts 201°
2026-04-22 19:47 44.57372 26.08482 324 ft 16 kts 174°
2026-04-22 19:47 44.57260 26.08498 322 ft 19 kts 174°
2026-04-22 19:48 44.57124 26.08518 319 ft 19 kts 175°
2026-04-22 19:48 44.57000 26.08534 320 ft 13 kts 172°
2026-04-22 19:48 44.56915 26.08522 320 ft 13 kts 223°
2026-04-22 19:48 44.56912 26.08421 320 ft 11 kts 322°
2026-04-22 19:49 44.56972 26.08371 318 ft 11 kts 311°
2026-04-22 19:49 44.57018 26.08294 319 ft 9 kts 309°
2026-04-22 19:49 44.57048 26.08241 317 ft 0 kts 309°